Location: Boiro
(42.6475°N, 8.8834°W)
Time: 02:26:02
(UTC+01:00)

Explorer 11/Cluster Stage 4 - Pass Details

Date: 08 December 2021
Orbit: 467 x 1255 km, 28.8° (Epoch: 20 January)

Event Time Altitude Azimuth Distance (km) Brightness Sun altitude
Rises 05:19:06 0° 251° (WSW) 3,473 - -38.5°
Reaches altitude 10° 05:22:11 10° 235° (SW) 2,676 - -37.9°
Maximum altitude 05:26:52 21° 190° (S) 2,193 - -37.0°
Exits shadow 05:29:03 18° 167° (SSE) 2,405 9.1 -36.6°
Drops below altitude 10° 05:32:06 10° 146° (SE) 3,043 9.9 -36.1°
Sets 05:35:54 0° 132° (SE) 4,098 10.8 -35.4°
